TimeCST,TemperatureF,Dew PointF,Humidity,Sea Level PressureIn,VisibilityMPH,Wind Direction,Wind SpeedMPH,Gust SpeedMPH,PrecipitationIn,Events,Conditions,WindDirDegrees,DateUTC
12:15 AM,39.2,30.2,70,30.16,10.0,East,4.6,-,N/A,,Clear,90,2013-02-02 06:15:00
12:35 AM,37.4,30.2,75,30.16,10.0,ENE,5.8,-,N/A,,Clear,60,2013-02-02 06:35:00
12:55 AM,37.4,30.2,75,30.16,10.0,East,4.6,-,N/A,,Clear,80,2013-02-02 06:55:00
1:15 AM,39.2,30.2,70,30.15,10.0,East,5.8,-,N/A,,Clear,100,2013-02-02 07:15:00
1:35 AM,37.4,30.2,75,30.15,10.0,East,3.5,-,N/A,,Clear,90,2013-02-02 07:35:00
1:55 AM,37.4,30.2,75,30.15,10.0,ESE,4.6,-,N/A,,Clear,110,2013-02-02 07:55:00
2:15 AM,37.4,30.2,75,30.14,10.0,ESE,4.6,-,N/A,,Clear,120,2013-02-02 08:15:00
2:35 AM,35.6,30.2,81,30.15,10.0,Calm,Calm,-,N/A,,Clear,0,2013-02-02 08:35:00
2:55 AM,35.6,30.2,81,30.15,10.0,Calm,Calm,-,N/A,,Clear,0,2013-02-02 08:55:00
3:15 AM,33.8,28.4,81,30.14,10.0,Calm,Calm,-,N/A,,Clear,0,2013-02-02 09:15:00
3:35 AM,33.8,28.4,81,30.14,10.0,Calm,Calm,-,N/A,,Clear,0,2013-02-02 09:35:00
3:55 AM,32.0,28.4,87,30.14,10.0,SSE,3.5,-,N/A,,Clear,150,2013-02-02 09:55:00
4:15 AM,32.0,28.4,87,30.14,10.0,Calm,Calm,-,N/A,,Clear,0,2013-02-02 10:15:00
4:35 AM,32.0,28.4,87,30.15,10.0,Calm,Calm,-,N/A,,Clear,0,2013-02-02 10:35:00
4:55 AM,32.0,28.4,87,30.15,10.0,Calm,Calm,-,N/A,,Clear,0,2013-02-02 10:55:00
5:15 AM,32.0,28.4,87,30.16,10.0,Calm,Calm,-,N/A,,Clear,0,2013-02-02 11:15:00
5:35 AM,32.0,30.2,93,30.17,10.0,North,5.8,-,N/A,,Clear,360,2013-02-02 11:35:00
10:55 AM,51.8,33.8,50,30.28,10.0,NW,5.8,-,N/A,,Clear,310,2013-02-02 16:55:00
10:35 PM,33.8,30.2,87,30.32,10.0,Calm,Calm,-,N/A,,Clear,0,2013-02-03 04:35:00
11:15 PM,32.0,30.2,93,30.32,10.0,Calm,Calm,-,N/A,,Clear,0,2013-02-03 05:15:00
11:35 PM,32.0,32.0,100,30.33,10.0,Calm,Calm,-,N/A,,Clear,0,2013-02-03 05:35:00
11:55 PM,32.0,30.2,93,30.32,10.0,Calm,Calm,-,N/A,,Clear,0,2013-02-03 05:55:00